Location: Esp�n
(42.4593°N, 0.2047°W)
Time: 13:07:59
(UTC+00:00)

Cosmos 1703 - Pass Details

Date: 07 June 2020
Orbit: 523 x 541 km, 82.5° (Epoch: 11 July)

Event Time Altitude Azimuth Distance (km) Brightness Sun altitude
Exits shadow 01:05:59 65° 302° (WNW) 591 3.4 -23.0°
Drops below altitude 10° 01:09:42 10° 3° (N) 1,793 7.0 -22.8°
Sets 01:11:52 0° 6° (N) 2,685 8.2 -22.7°
